[[{"header":{"parameterUnit":"m.s-1","parameterCategory":1,"la1":30.2991,"la2":30.254,"lo1":-89.0895,"lo2":-89.0444,"dy":0.0017,"dx":0.0017,"nx":28,"ny":28,"refTime":"2024-12-31T03:00:00:Z","depth":0,"parameterNumber":2,"parameterNumberName":"U-component_of_WINDS"},"data":[0,0,0,0,0,0,0,0,0,0,0,0,0,0,0,0,0,0,0,0,0,0,0,0,0,0,0,0,0,0,0,0,0,0,0,0,0,0,0,0,0,0,0,0,0,0,0,0,0,0,0,0,0,0,0,0,0,0,0.7426,0.7427,0,0.7484,0.7485,0.7486,0.7524,0.7524,0.7525,0.7525,0.7585,0.7586,0.7587,0,0,0,0,0,0,0,0,0,0,0,0,0,0.7348,0.7349,0.7426,0.7427,0.7427,0.7484,0.7485,0.7486,0.7524,0.7524,0.7525,0.7525,0.7584,0.7586,0.7587,0,0,0,0,0,0,0,0,0,0,0,0,0,0.7392,0.735,0.7426,0.7453,0.7456,0.7484,0.7485,0.7486,0.7524,0.7524,0.7525,0.7525,0.7584,0.7586,0.7588,0.7593,0,0,0.7594,0.7595,0,0,0,0,0,0,0,0,0.7389,0.7395,0.7449,0.7451,0.7455,0.7497,0.748,0.7522,0.7524,0.7498,0.7525,0.7525,0.7555,0.756,0.757,0.7595,0.7598,0.7594,0.7595,0.7596,0.7597,0,0,0,0,0,0,0,0.7386,0.7392,0.7449,0.7449,0.7453,0.7463,0.747,0.7488,0.7524,0.7501,0.7504,0.751,0.7557,0.7568,0.7571,0.7599,0.7594,0.7596,0.7597,0.7598,0.7632,0.7632,0,0,0,0,0,0,0.7379,0.7389,0.7447,0.7451,0.7422,0.7464,0.7471,0.7483,0.7524,0.753,0.751,0.7511,0.7564,0.7569,0.7574,0.7582,0.7596,0.7598,0.7599,0.7633,0.7632,0.7632,0,0,0,0,0,0,0.7377,0.7384,0.7445,0.7421,0.743,0.7465,0.7478,0.7484,0.7495,0.7531,0.7537,0.7514,0.7565,0.7571,0.7588,0.7585,0.7599,0.7601,0.7633,0.7632,0.7632,0.76,0,0,0,0,0,0,0.7375,0.7383,0.7385,0.7421,0.7431,0.7458,0.7478,0.7485,0.7498,0.7502,0.7536,0.7542,0.7565,0.7585,0.759,0.7588,0.7602,0.7633,0.7633,0.7632,0.7601,0.7598,0.7596,0,0,0,0,0,0.7372,0.7373,0.7384,0.7391,0.7434,0.7457,0.7463,0.7489,0.7498,0.75,0.7524,0.7541,0.7585,0.7586,0.7592,0.7591,0.7634,0.7633,0.7632,0.7602,0.7599,0.7596,0,0,0,0,0,0,0.7335,0.7378,0.7391,0.7405,0.7427,0.7464,0.7468,0.7485,0.7505,0.7507,0.7539,0.7547,0.756,0.7578,0.7578,0.7599,0.7611,0.7612,0.7586,0.7583,0.7581,0.7576,0.7604,0,0,0,0,0,0.7329,0.7344,0.7381,0.7389,0.74,0.7432,0.7443,0.7461,0.7486,0.7496,0.752,0.7543,0.7562,0.7574,0.7593,0.7604,0.7613,0.7607,0.7604,0.7602,0.7601,0.7609,0.7607,0.763,0.763,0.763,0,0,0.7316,0.7341,0.7349,0.7382,0.7402,0.7417,0.7439,0.7455,0.7466,0.7498,0.7515,0.7534,0.7562,0.7576,0.7584,0.7591,0.7597,0.7601,0.7598,0.76,0.7608,0.7606,0.7604,0.7629,0.7629,0.7629,0,0,0.7299,0.732,0.7329,0.7349,0.7378,0.74,0.7402,0.7436,0.745,0.7468,0.7492,0.7507,0.7539,0.7558,0.7572,0.7564,0.7581,0.757,0.7555,0.7562,0.756,0.7559,0.7556,0.7555,0.757,0.757,0.757,0,0.7279,0.7303,0.7332,0.7346,0.736,0.739,0.74,0.7417,0.7451,0.7461,0.7468,0.751,0.7531,0.755,0.7548,0.7558,0.7562,0.7565,0.7558,0.7557,0.7556,0.7554,0.7553,0.7568,0.7568,0.7568,0.7568,0,0.7277,0.7293,0.7297,0.733,0.7345,0.7356,0.7387,0.7399,0.7416,0.7437,0.7455,0.7482,0.7507,0.7514,0.7531,0.7535,0.7539,0.7552,0.7566,0.7552,0.755,0.755,0.7566,0.7566,0.7567,0.7567,0,0,0.7238,0.7287,0.7288,0.7304,0.7339,0.7352,0.7366,0.7391,0.74,0.7423,0.7435,0.7462,0.7475,0.7491,0.7511,0.7517,0.7509,0.753,0.7531,0.7525,0.7517,0.7506,0.7505,0.7521,0.7521,0.7521,0.7514,0,0.7227,0.7252,0.7279,0.7295,0.7311,0.734,0.7352,0.7375,0.7395,0.7411,0.7434,0.7452,0.7467,0.7477,0.7485,0.7508,0.7508,0.751,0.7533,0.7533,0.7524,0.7504,0.7493,0.7484,0.7514,0.7514,0.7514,0,0.7217,0.7239,0.7256,0.7291,0.7298,0.7308,0.7334,0.7349,0.7377,0.7391,0.7409,0.743,0.7446,0.7458,0.7481,0.7482,0.7493,0.7507,0.7507,0.751,0.7522,0.7506,0.7482,0.7481,0.7513,0.7513,0.7513,0,0.7187,0.7221,0.7236,0.7248,0.7289,0.7295,0.7312,0.734,0.7354,0.7376,0.7385,0.741,0.7423,0.7441,0.7469,0.7475,0.7489,0.7503,0.7501,0.75,0.7502,0.7501,0.748,0.751,0.751,0.751,0.751,0,0.7171,0.7181,0.7223,0.7232,0.7244,0.7275,0.7286,0.7306,0.733,0.7344,0.7371,0.7383,0.7419,0.7436,0.7458,0.7474,0.7479,0.7492,0.7497,0.7489,0.7487,0.7496,0.7497,0.751,0.751,0.751,0.751,0,0.7139,0.7168,0.7186,0.7223,0.7233,0.724,0.7272,0.7282,0.7304,0.7321,0.7327,0.7362,0.7383,0.7413,0.7443,0.7458,0.7471,0.748,0.7461,0.7465,0.7461,0.7461,0.7444,0.7443,0.7474,0.7474,0.7473,0,0.7127,0.7135,0.7173,0.7184,0.7201,0.7218,0.7233,0.7264,0.7278,0.731,0.7316,0.734,0.736,0.7393,0.7421,0.7445,0.7455,0.7447,0.7458,0.745,0.7454,0.7453,0.7454,0.7444,0.7444,0.7443,0.7443,0,0.7102,0.7116,0.7135,0.716,0.7176,0.7197,0.7219,0.7227,0.7263,0.7277,0.7299,0.7315,0.7347,0.737,0.7397,0.7416,0.7435,0.744,0.744,0.7431,0.742,0.7426,0.7453,0.7439,0.744,0.744,0.744,0.744,0.708,0.7088,0.7116,0.7137,0.7157,0.7177,0.7189,0.7213,0.7232,0.726,0.7277,0.7299,0.7327,0.7366,0.7384,0.7401,0.7409,0.741,0.741,0.741,0.7407,0.7418,0.7407,0.7407,0.7407,0.7407,0.7407,0,0.7056,0.7076,0.7095,0.7125,0.7141,0.7159,0.7184,0.7197,0.7215,0.724,0.726,0.7286,0.7309,0.7339,0.7364,0.7372,0.7382,0.7378,0.7377,0.7381,0.7399,0.7396,0.737,0.737,0.737,0.737,0.737,0.737,0.7046,0.7061,0.7078,0.7104,0.7125,0.7146,0.7159,0.7178,0.7198,0.7225,0.7244,0.7264,0.7291,0.7319,0.7341,0.7349,0.7357,0.735,0.7361,0.7377,0.738,0.7383,0.738,0.7352,0.7352,0.7342,0.7342,0.7342]},{"header":{"parameterUnit":"m.s-1","parameterCategory":1,"la1":30.2991,"la2":30.254,"lo1":-89.0895,"lo2":-89.0444,"dy":0.0017,"dx":0.0017,"nx":28,"ny":28,"refTime":"2024-12-31T03:00:00:Z","depth":0,"parameterNumber":3,"parameterNumberName":"V-component_of_WINDS"},"data":[0,0,0,0,0,0,0,0,0,0,0,0,0,0,0,0,0,0,0,0,0,0,0,0,0,0,0,0,0,0,0,0,0,0,0,0,0,0,0,0,0,0,0,0,0,0,0,0,0,0,0,0,0,0,0,0,0,0,-5.2181,-5.2183,0,-5.2371,-5.2373,-5.2375,-5.2363,-5.236,-5.2357,-5.2355,-5.255,-5.2558,-5.2566,0,0,0,0,0,0,0,0,0,0,0,0,0,-5.181,-5.1817,-5.2181,-5.2183,-5.2186,-5.237,-5.2373,-5.2376,-5.2363,-5.236,-5.2357,-5.2354,-5.2548,-5.2557,-5.2566,0,0,0,0,0,0,0,0,0,0,0,0,0,-5.1983,-5.1819,-5.218,-5.2202,-5.2205,-5.237,-5.2373,-5.2376,-5.2364,-5.236,-5.2356,-5.2352,-5.2545,-5.2556,-5.2568,-5.2724,0,0,-5.2603,-5.2609,0,0,0,0,0,0,0,0,-5.1973,-5.1996,-5.2196,-5.2201,-5.2205,-5.2339,-5.2314,-5.2493,-5.2365,-5.2304,-5.2355,-5.235,-5.2483,-5.25,-5.2545,-5.2733,-5.2741,-5.2604,-5.2612,-5.2617,-5.262,0,0,0,0,0,0,0,-5.1961,-5.1988,-5.2256,-5.2199,-5.2205,-5.2203,-5.2223,-5.2348,-5.2415,-5.2309,-5.2309,-5.2331,-5.2485,-5.2534,-5.2549,-5.2744,-5.2604,-5.2615,-5.2622,-5.2626,-5.3073,-5.3077,0,0,0,0,0,0,-5.1944,-5.1978,-5.225,-5.2262,-5.2076,-5.2213,-5.2235,-5.23,-5.2413,-5.2427,-5.2335,-5.233,-5.2516,-5.2536,-5.2556,-5.2749,-5.2617,-5.2628,-5.2634,-5.3068,-5.3074,-5.3079,0,0,0,0,0,0,-5.1936,-5.1968,-5.2242,-5.212,-5.2155,-5.2224,-5.2297,-5.2306,-5.2355,-5.2433,-5.2445,-5.2372,-5.2513,-5.254,-5.2683,-5.2755,-5.2633,-5.2643,-5.3062,-5.307,-5.3076,-5.3134,0,0,0,0,0,0,-5.1925,-5.1966,-5.2025,-5.2121,-5.2161,-5.2365,-5.2301,-5.2313,-5.2375,-5.237,-5.2471,-5.2483,-5.2512,-5.2665,-5.2694,-5.2769,-5.2653,-5.3056,-5.3065,-5.3074,-5.3126,-5.3142,-5.3156,0,0,0,0,0,-5.1912,-5.2033,-5.2028,-5.2061,-5.2237,-5.2369,-5.2392,-5.2422,-5.238,-5.2442,-5.2492,-5.248,-5.2742,-5.268,-5.2713,-5.2792,-5.3052,-5.3063,-5.3073,-5.3119,-5.3139,-5.3156,0,0,0,0,0,0,-5.1943,-5.2046,-5.2041,-5.2197,-5.2275,-5.2367,-5.2445,-5.2442,-5.2533,-5.2526,-5.2559,-5.2582,-5.2726,-5.2773,-5.2702,-5.295,-5.2892,-5.2909,-5.2915,-5.2935,-5.2949,-5.2936,-5.2662,0,0,0,0,0,-5.1968,-5.2067,-5.2151,-5.228,-5.2319,-5.2375,-5.2434,-5.2451,-5.2533,-5.2566,-5.2626,-5.2707,-5.2808,-5.2873,-5.297,-5.3131,-5.3155,-5.3202,-5.3217,-5.3229,-5.3245,-5.3337,-5.336,-5.3115,-5.3114,-5.3114,0,0,-5.2021,-5.2089,-5.2149,-5.2288,-5.235,-5.2453,-5.2403,-5.2513,-5.259,-5.2582,-5.2722,-5.2769,-5.2861,-5.3015,-5.3086,-5.3059,-5.3318,-5.3243,-5.3252,-5.3262,-5.3351,-5.3374,-5.3395,-5.3122,-5.3121,-5.3119,0,0,-5.217,-5.223,-5.2346,-5.2409,-5.2504,-5.2541,-5.2568,-5.2662,-5.2693,-5.2834,-5.2831,-5.2923,-5.3095,-5.3161,-5.3218,-5.3393,-5.3387,-5.3424,-5.3504,-5.3593,-5.3612,-5.363,-5.3695,-5.3718,-5.3439,-5.3439,-5.3439,0,-5.2224,-5.2377,-5.2405,-5.2517,-5.258,-5.2577,-5.2696,-5.2756,-5.2877,-5.2921,-5.2888,-5.3106,-5.3167,-5.3338,-5.3381,-5.3426,-5.346,-5.3414,-5.3607,-5.3625,-5.3642,-5.3705,-5.3729,-5.3443,-5.3442,-5.3442,-5.3442,0,-5.244,-5.2547,-5.2629,-5.2747,-5.2819,-5.2933,-5.298,-5.3049,-5.3059,-5.3099,-5.3244,-5.3317,-5.343,-5.3471,-5.3482,-5.3645,-5.3626,-5.36,-5.3542,-5.3669,-5.3729,-5.3753,-5.3449,-5.3447,-5.3446,-5.3445,0,0,-5.2615,-5.2748,-5.2778,-5.2833,-5.2937,-5.3021,-5.3136,-5.3246,-5.3306,-5.339,-5.3489,-5.3635,-5.3613,-5.3677,-5.3695,-5.3773,-5.3911,-5.3738,-5.374,-5.377,-5.4098,-5.4119,-5.4146,-5.3906,-5.3911,-5.3914,-5.4091,0,-5.2777,-5.2981,-5.301,-5.3191,-5.3291,-5.3291,-5.3391,-5.3467,-5.3508,-5.36,-5.3645,-5.3749,-5.371,-5.3749,-5.3826,-5.3878,-5.3978,-5.3865,-5.4001,-5.4005,-5.398,-5.4177,-5.4199,-5.4362,-5.4114,-5.4118,-5.4121,0,-5.2993,-5.3084,-5.3275,-5.3368,-5.3411,-5.3501,-5.3606,-5.3693,-5.378,-5.3804,-5.3876,-5.3886,-5.4006,-5.3941,-5.4109,-5.4032,-5.4089,-5.4123,-5.413,-5.4146,-5.4073,-5.4201,-5.4415,-5.444,-5.4158,-5.4155,-5.4152,0,-5.3106,-5.3275,-5.3412,-5.3458,-5.3569,-5.3633,-5.3683,-5.3765,-5.383,-5.3922,-5.3965,-5.4069,-5.4127,-5.4208,-5.4245,-5.4194,-5.4412,-5.4349,-5.4438,-5.4437,-5.4486,-5.4483,-5.4715,-5.4518,-5.4517,-5.4517,-5.4516,0,-5.3285,-5.3403,-5.3464,-5.3549,-5.3681,-5.3714,-5.3844,-5.3891,-5.3965,-5.406,-5.4064,-5.4153,-5.4196,-5.4292,-5.4322,-5.4458,-5.4483,-5.4508,-5.4515,-5.4509,-5.4507,-5.4549,-5.454,-5.4523,-5.4522,-5.4521,-5.452,0,-5.3434,-5.348,-5.3629,-5.3722,-5.3749,-5.3842,-5.3923,-5.4006,-5.4045,-5.4165,-5.4195,-5.4259,-5.4372,-5.4417,-5.4555,-5.4575,-5.4734,-5.473,-5.4705,-5.4708,-5.4794,-5.4787,-5.5064,-5.5103,-5.4878,-5.488,-5.4881,0,-5.3547,-5.3638,-5.3741,-5.3805,-5.3856,-5.3959,-5.4026,-5.4061,-5.4131,-5.4237,-5.4308,-5.4421,-5.4513,-5.4694,-5.4753,-5.486,-5.4861,-5.4951,-5.4877,-5.4869,-5.4866,-5.4861,-5.4872,-5.4965,-5.4967,-5.4969,-5.4971,0,-5.3744,-5.3763,-5.3858,-5.3964,-5.4043,-5.4127,-5.4209,-5.4261,-5.431,-5.4388,-5.4504,-5.4576,-5.4718,-5.4831,-5.494,-5.4992,-5.4991,-5.4993,-5.502,-5.5016,-5.4999,-5.5013,-5.4745,-5.4987,-5.4986,-5.4984,-5.4983,-5.4983,-5.3881,-5.3962,-5.4048,-5.4156,-5.4221,-5.4298,-5.4381,-5.4432,-5.4529,-5.4648,-5.4663,-5.4788,-5.4874,-5.5021,-5.5077,-5.5177,-5.5153,-5.5191,-5.5201,-5.5211,-5.5218,-5.4981,-5.5196,-5.5196,-5.5195,-5.5195,-5.5195,0,-5.4081,-5.4136,-5.4235,-5.435,-5.4435,-5.4425,-5.4515,-5.4588,-5.4698,-5.4778,-5.4869,-5.5003,-5.5113,-5.5181,-5.5292,-5.5358,-5.5361,-5.5387,-5.5384,-5.5396,-5.5231,-5.5199,-5.5383,-5.5383,-5.5383,-5.5383,-5.5383,-5.5383,-5.4195,-5.4333,-5.4362,-5.4534,-5.4588,-5.4711,-5.4764,-5.4836,-5.49,-5.505,-5.5141,-5.5184,-5.5261,-5.5377,-5.5478,-5.5495,-5.5537,-5.5566,-5.5581,-5.5427,-5.5407,-5.5389,-5.5359,-5.5574,-5.5574,-5.5739,-5.574,-5.5741]}]]